Home > Weather > Leesburg > Past weeks

Flag for USA Past Weather in Leesburg, Virginia, USA — Yesterday and Last 2 Weeks

Now
61 °F

Clear.


Feels Like: 61 °F
Forecast: 62 / 82 °F
Wind: 5 mph from Northwest

Location: Leesburg / Godfrey

Current Time: Jun 30, 2016 at 4:42:09 AM

Latest Report: Jun 30, 2016 at 4:15 AM


Visibility: 10 mi

Pressure: 30.06 "Hg

Humidity: 94%

Dew Point: 59 °F

Location of LeesburgLocation

Past Weather in Leesburg — Graph

°F

Leesburg Temperature Yesterday

Maximum temperature yesterday: 81 °F (at 2:35 PM)
Minimum temperature yesterday: 66 °F (at 11:55 PM)
Average temperature yesterday: 74 °F

High & Low Weather Summary for the Past Weeks

 TemperatureHumidityPressure
High91 °F (Jun 28, 3:35 PM)100% (Jun 15, 5:55 AM)30.38 "Hg (Jun 15, 5:55 AM)
Low57 °F (Jun 19, 6:15 AM)29% (Jun 19, 3:55 PM)29.67 "Hg (Jun 16, 6:55 PM)
Average75 °F74%30.02 "Hg
* Reported Jun 15 3:15 AM — Jun 30 3:15 AM, Leesburg, Weather by CustomWeather, © 2016

Note: Actual official high and low records may vary slightly from our data, if they occured in-between our weather recording intervals... More about our weather records

Advertising

Leesburg Weather History for the Previous 24 Hours

Scroll right to see more
 ConditionsComfort  
Time TempWeatherWind HumidityBarometerVisibility
3:15 AM
Thu, Jun 30
63 °FClear.5 mph83%30.06 "Hg10 mi
2:55 AM63 °FClear.No wind83%30.06 "Hg10 mi
2:35 AM64 °FClear.No wind78%30.06 "Hg10 mi
2:15 AM63 °FClear.3 mph88%30.06 "Hg10 mi
1:55 AM64 °FClear.3 mph78%30.06 "Hg10 mi
1:35 AM63 °FClear.6 mph88%30.06 "Hg10 mi
1:15 AM64 °FClear.5 mph83%30.05 "Hg10 mi
12:55 AM63 °FClear.5 mph83%30.05 "Hg10 mi
12:15 AM64 °FClear.3 mph78%30.05 "Hg10 mi
11:55 PM
Wed, Jun 29
66 °FClear.No wind78%30.04 "Hg10 mi
11:35 PM68 °FClear.No wind69%30.04 "Hg10 mi
11:15 PM68 °FClear.No wind73%30.03 "Hg10 mi
10:55 PM70 °FClear.3 mph69%30.04 "Hg10 mi
10:35 PM68 °FClear.5 mph73%30.04 "Hg10 mi
10:15 PM70 °FClear.8 mph69%30.03 "Hg10 mi
9:55 PM70 °FClear.6 mph69%30.03 "Hg10 mi
9:35 PM72 °FSunny.8 mph65%30.02 "Hg10 mi
9:15 PM72 °FSunny.7 mph65%30.02 "Hg10 mi
8:55 PM73 °FSunny.9 mph61%30.01 "Hg10 mi
8:35 PM73 °FSunny.8 mph61%30.01 "Hg10 mi
8:15 PM75 °FSunny.9 mph57%30.00 "Hg10 mi
7:55 PM77 °FSunny.12 mph54%29.99 "Hg10 mi
7:35 PM77 °FSunny.10 mph54%29.99 "Hg10 mi
7:15 PM77 °FSunny.9 mph54%29.98 "Hg10 mi
6:55 PM79 °FSunny.12 mph51%29.98 "Hg10 mi
6:35 PM79 °FSunny.12 mph51%29.98 "Hg10 mi
6:15 PM79 °FSunny.10 mph51%29.98 "Hg10 mi
5:55 PM79 °FSunny.17 mph51%29.98 "Hg10 mi
5:35 PM79 °FSunny.14 mph51%29.98 "Hg10 mi
5:15 PM79 °FSunny.14 mph51%29.98 "Hg10 mi
4:55 PM81 °FSunny.13 mph48%29.98 "Hg10 mi
4:35 PM81 °FScattered clouds.16 mph48%29.98 "Hg10 mi
4:15 PM81 °FScattered clouds.16 mph51%29.98 "Hg10 mi
3:55 PM81 °FScattered clouds.16 mph48%29.98 "Hg10 mi
3:35 PM81 °FSunny.14 mph48%29.98 "Hg10 mi
3:15 PM81 °FSunny.17 mph51%29.98 "Hg10 mi
2:55 PM79 °FScattered clouds.15 mph51%29.98 "Hg10 mi
2:35 PM81 °FScattered clouds.14 mph51%29.98 "Hg10 mi
2:15 PM79 °FScattered clouds.14 mph51%29.98 "Hg10 mi
1:35 PM79 °FScattered clouds.14 mph54%29.98 "Hg10 mi
1:15 PM79 °FPartly sunny.10 mph54%29.98 "Hg10 mi
12:55 PM77 °FMostly cloudy.13 mph57%29.98 "Hg10 mi
12:35 PM77 °FMostly cloudy.14 mph61%29.98 "Hg10 mi
12:15 PM79 °FScattered clouds.13 mph54%29.98 "Hg10 mi
11:30 AM79 °FScattered clouds.13 mph58%29.98 "Hg10 mi
11:15 AM77 °FSunny.7 mph65%29.98 "Hg10 mi
10:55 AM77 °FSunny.10 mph61%29.98 "Hg10 mi
10:35 AM77 °FSunny.7 mph57%29.98 "Hg10 mi
10:15 AM75 °FSunny.12 mph65%29.98 "Hg10 mi
9:55 AM75 °FSunny.12 mph65%29.98 "Hg10 mi
9:35 AM73 °FSunny.9 mph69%29.99 "Hg10 mi
9:15 AM73 °FSunny.10 mph69%29.99 "Hg10 mi
8:55 AM73 °FSunny.10 mph69%29.98 "Hg10 mi
8:35 AM72 °FSunny.13 mph73%29.98 "Hg10 mi
8:15 AM72 °FSunny.12 mph73%29.98 "Hg10 mi
7:55 AM72 °FSunny.10 mph73%29.97 "Hg10 mi
7:35 AM72 °FSunny.8 mph73%29.97 "Hg10 mi
7:15 AM70 °FSunny.7 mph78%29.96 "Hg10 mi
6:55 AM70 °FSunny.8 mph78%29.96 "Hg10 mi
6:35 AM70 °FClear.6 mph78%29.95 "Hg10 mi
6:15 AM70 °FPassing clouds.7 mph78%29.95 "Hg10 mi
5:35 AM68 °FClear.6 mph83%29.94 "Hg10 mi
5:15 AM68 °FClear.5 mph83%29.93 "Hg10 mi
4:35 AM68 °FClear.6 mph83%29.92 "Hg10 mi
4:15 AM70 °FClear.9 mph83%29.92 "Hg10 mi
Weather by CustomWeather, © 2016

See weather overviewHow to use our weather pages